Regional Weather Roundup
Issued by NWS

Home | Current Version | Previous Version | Graphics & Text | Print | Product List | Glossary On
Versions: 1 2 3 4 5 6 7 8 9 10 11 12 13 14 15 16 17 18 19 20 21 22 23 24 25 26 27 28 29 30 31 32 33 34 35 36 37 38 39 40 41 42 43 44 45 46 47 48 49 50
000
ASUS43 KMKX 010910
RWRWI

WISCONSIN REGIONAL WEATHER ROUNDUP
NATIONAL WEATHER SERVICE MILWAUKEE/SULLIVAN WI
300 AM CST SUN FEB 01 2015

NOTE: "FAIR" INDICATES FEW OR NO CLOUDS BELOW 12,000 FEET WITH NO
SIGNIFICANT WEATHER AND/OR OBSTRUCTIONS TO VISIBILITY.

WIZ001-002-006>008-014>016-023>028-011000-
NORTHWEST WISCONSIN

CITY           SKY/WX    TMP DP  RH WIND       PRES   REMARKS
SUPERIOR ARPT  LGT SNOW  10   7  87 NE16      30.37F WCI  -7
ASHLAND        CLOUDY    10   1  67 E9        30.37R WCI  -3
HAYWARD        CLOUDY    11   1  64 NE14      30.27F WCI  -5
SIREN          CLOUDY    14   7  75 NE10G16   30.28S WCI   1
CUMBERLAND     CLOUDY    12   3  67 NE15      30.22F WCI  -4
RICE LAKE      CLOUDY    14   4  63 NE14      30.25F WCI  -1
CHETEK         CLOUDY    13   4  66 MISG      30.24S
LADYSMITH      CLOUDY    13   4  69 NE15      30.26S WCI  -3
EAU CLAIRE     LGT SNOW  16   9  74 NE14      30.20F WCI   2
MENOMONIE      LGT SNOW  16  10  75 NE10G18   30.21F WCI   4
NEW RICHMOND   CLOUDY    16   7  68 NE16G24   30.21F WCI   0
OSCEOLA        CLOUDY    17   8  67 NE16      30.26F WCI   1
$$

WIZ003>005-009-010-017-018-011000-
NORTH CENTRAL WISCONSIN

CITY           SKY/WX    TMP DP  RH WIND       PRES   REMARKS
MANITOWISH WTR MOCLDY     2  -3  78 NE6       30.27S WCI  -9
ARBOR VITAE    CLOUDY     5   0  77 NE3       30.26S
WOODRUFF       CLOUDY     5   0  77 NE3       30.26S
RHINELANDER    CLOUDY     5  -2  72 NE6       30.24F WCI  -6
EAGLE RIVER    MOCLDY     4  -3  73 NE3       30.25F
LAND O LAKES   MOCLDY     3  -1  81 N6        30.27F WCI  -8
PHILLIPS       CLOUDY     6  -1  73 NE12G18   30.25R WCI -10
TOMAHAWK       CLOUDY     7   0  74 NE6       30.25S WCI  -3
MEDFORD        CLOUDY    11   4  72 NE15      30.19S WCI  -5
MERRILL        CLOUDY    10   1  69 NE10      30.24S WCI  -4
$$

WIZ029-030-035-036-043>047-011000-
CENTRAL WISCONSIN

CITY           SKY/WX    TMP DP  RH WIND       PRES   REMARKS
WAUSAU         CLOUDY    11   2  67 NE10G20   30.22S WCI  -3
MOSINEE        CLOUDY    12   9  85 NE13      30.22S WCI  -3
MARSHFIELD     LGT SNOW  15  10  80 NE16      30.18F WCI  -1
STEVENS POINT  LGT SNOW  10   5  79 NE13G22   30.22F WCI  -5
WAUPACA        LGT SNOW  15   8  73 NE8G16    30.24F WCI   4
WAUTOMA        LGT SNOW  14  11  88 NE13      30.21F VSB 1   WCI   0
WISC RAPIDS    LGT SNOW  14   8  77 E14       30.21F WCI  -1
CAMP DOUGLAS   LGT SNOW  18  16  93 NE8       30.17S FOG     WCI   7
$$

WIZ011>013-019>022-031-037>040-048>050-011000-
NORTHEAST WISCONSIN

CITY           SKY/WX    TMP DP  RH WIND       PRES   REMARKS
ANTIGO         CLOUDY     8   1  76 NE13      30.22F WCI  -8
SHAWANO        CLOUDY    14   5  67 NE13      30.28F WCI   0
OCONTO         CLOUDY    12   4  71 MISG      30.30F
STURGEON BAY   CLOUDY    12   5  73 N14       30.29F WCI  -3
GREEN BAY      CLOUDY    14   6  70 NE18G28   30.26F WCI  -3
MANITOWOC      FLURRIES  16  12  84 N12G17    30.22F WCI   3
APPLETON       LGT SNOW  14   9  79 NE15G21   30.23F WCI  -1
CLINTONVILLE   CLOUDY    14   3  62 NE8G18    30.26F WCI   3
OSHKOSH        LGT SNOW  14   9  80 NE21G30   30.21F WCI  -4
$$

WIZ032>034-041-042-053>061-011000-
SOUTHWEST WISCONSIN

CITY           SKY/WX    TMP DP  RH WIND       PRES   REMARKS
LA CROSSE      LGT SNOW  25  21  85 N10       30.12F FOG     WCI  15
SPARTA         LGT SNOW  20  16  84 E17G24    30.15S WCI   6
VIROQUA        CLOUDY    23  22  96 E26G35    30.06F WCI   6
BOSCOBEL       LGT SNOW  27  23  85 NE13G20   30.08F VSB 3/4 WCI  16
PRAIRIE DU CHI LGT SNOW  27  24  86 E8G16     30.04F WCI  19
PLATTEVILLE    CLOUDY    27  26  94 NE18G25   30.01F VSB 1   WCI  14
$$

WIZ056-057-062-063-064-067-068-011000-
SOUTH CENTRAL WISCONSIN

CITY           SKY/WX    TMP DP  RH WIND       PRES   REMARKS
REEDSBURG      LGT SNOW  17  14  86 NE13G22   30.13F WCI   4
BARABOO/DELLS  SNOW      17  14  88 NE16G24   30.13F VSB 1/2 WCI   2
LONE ROCK      LGT SNOW  24  20  84 E17G23    30.10F FOG     WCI  11
MINERAL POINT  LGT SNOW  28  27  93 NE18      30.02F WCI  16
MADISON        LGT SNOW  22  18  85 NE17      30.11F FOG     WCI   8
MIDDLETON      CLOUDY    24  20  86 NE15G21   30.10F WCI  11
WATERTOWN      LGT SNOW  24  22  93 NE13      30.11F WCI  12
MONROE         LGT SNOW  28  27  93 NE14      30.03F WCI  17
JANESVILLE     LGT SNOW  30  28  93 E18       30.07F WCI  18
$$

WIZ051-052-058>065-066-070>072-011000-
SOUTHEAST WISCONSIN

CITY           SKY/WX    TMP DP  RH WIND       PRES   REMARKS
MILWAUKEE      LGT SNOW  27  23  85 NE22G30   30.13F FOG     WCI  13
WAUKESHA       LGT SNOW  25  21  86 NE14G22   30.13S WCI  13
MILWAUKEE/TIMM LGT SNOW  27  23  86 NE14G21   30.14F WCI  15
RACINE         LGT SNOW  28  25  88 NE15      30.13F FOG     WCI  16
BURLINGTON     LGT SNOW  26  25  94 E12       30.10F WCI  16
KENOSHA        LGT SNOW  29  26  89 E18       30.10F VSB 3/4 WCI  16
FOND DU LAC    LGT SNOW  16  11  80 NE23      30.20F WCI  -2
SHEBOYGAN      LGT SNOW  17  13  84 N14G21    30.19F VSB 1   WCI   3
WEST BEND      LGT SNOW  23  19  86 NE15G23   30.14F WCI  10
JUNEAU         LGT SNOW  18  15  88 N16G23    30.15S WCI   3
$$

LSZ147-162-011000-
LAKE SUPERIOR

STATION/POSITION TIME  TEMP    WIND        PRES    WAVE
                       AIR SEA DIR/SP/G            HT/PER
                 (UTC) (F)     (DEG/KT/KT) (MB)    (FT/S)
DEVILS ISLAND    0900   12      60/ 20/ 24 1031.1F
PORT WING        0800   14      70/ 12/ 18 1028.4S
SAXON HARBOR     0800   10     100/  4/ 12 1028.8R
$$

LMZ867-665-643>646-011000-
LAKE MICHIGAN

STATION/POSITION TIME  TEMP    WIND        PRES    WAVE
                       AIR SEA DIR/SP/G            HT/PER
                 (UTC) (F)     (DEG/KT/KT) (MB)    (FT/S)
NORTHPORT PIER   0827   15      10/ 15/ 19 1026.8F
SISTER BAY       0813   14      20/ 11/ 13   N/A
KEWAUNEE LAKESHO 0800   15      10/  9/ 15 1024.3F
SHEBOYGAN LAKESH 0900   24      50/ 25/ 26 1023.3F
PORT WASHINGTON  0827   27      50/ 20/ 25 1022.4F
MILWAUKEE LAKESH 0800   28      50/ 23/ 26   N/A
KENOSHA   LAKESH 0900   29      60/ 19/ 21 1019.3F
$$

TC  - TEMPERATURE IN CELSIUS
VSB - VISIBILITY IN STATUTE MILES
WCI - WIND CHILL INDEX
HX  - HEAT INDEX




USA.gov is the U.S. government's official web portal to all federal, state and local government web resources and services.